Preview of NWS' New Version of Forecast
This preview is not operational and should not be used for support decisions.

Regional Weather Roundup (RWR)

Issued by National Weather Service (NWS)

                            
000
ASCA42 TJSJ 191010
RWRPR 
PUERTO RICO/U.S. VIRGIN ISLANDS HOURLY WEATHER ROUNDUP
NATIONAL WEATHER SERVICE SAN JUAN PR
600 AM AST TUE FEB 19 2019

PRZ001>002-007>008-010-191100-
PUERTO RICO
  
CITY           SKY/WX    TMP DP  RH WIND       PRES   REMARKS
SAN JUAN LMM   PTCLDY    72  66  83 E7        30.11R                  
CEIBA          CLEAR     73  64  73 NE9       30.12S                  
$$

VIZ001>002-191100-
U.S. VIRGIN ISLANDS
  
CITY           SKY/WX    TMP DP  RH WIND       PRES   REMARKS
CHARLOTTE AMA  CLEAR     75  66  73 NE8       30.10S                  
CHRISTIANSTED  MOCLDY    75  68  78 NE9       30.10R                  
$$

HOURLY WEATHER ROUNDUP FOR THE NEWS MEDIA
  
CITY           SKY/WX    TMP DP  RH WIND       PRES   REMARKS
ORLANDO        CLOUDY    65  58  78 NE9       30.18S                  
NEW YORK       FAIR      24  11  57 NW18      30.46R WCI  10          
NEWARK         FAIR      24  10  55 W8        30.47R WCI  15          
CHICAGO        MOCLDY    14  10  84 CALM      30.56S                  
HARTFORD       FAIR      17   8  67 NW3       30.35R                  
BOSTON         FAIR      19   4  51 W16G23    30.36R WCI   4          
DALLAS         CLOUDY    40  27  59 NE12      30.20F WCI  33          
PHILADELPHIA   FAIR      27   8  44 N14       30.51R WCI  16          
LOS ANGELES    PTCLDY    49  25  39 N13       30.11F                  
WASHINGTON DC  FAIR      28  15  58 N6        30.53R WCI  22